Location: Cruquius
(52.3348°N, 4.6319°E)
Time: 23:05:17
(UTC+00:00)

NOSS 2-1 (C) - Pass Details

Date: 12 May 2021
Orbit: 430 x 1771 km, 63.3° (Epoch: 26 May)

Event Time Altitude Azimuth Distance (km) Brightness Sun altitude
Rises 23:00:50 0° 314° (NW) 2,744 7.8 -18.8°
Reaches altitude 10° 23:02:47 10° 318° (NW) 1,966 7.0 -18.9°
Maximum altitude 23:07:09 61° 40° (NE) 849 4.4 -19.0°
Enters shadow 23:12:35 13° 119° (ESE) 2,471 6.3 -19.1°
